TimeCDT,TemperatureF,Dew PointF,Humidity,Sea Level PressureIn,VisibilityMPH,Wind Direction,Wind SpeedMPH,Gust SpeedMPH,PrecipitationIn,Events,Conditions,WindDirDegrees,DateUTC
12:54 AM,55.0,50.0,83,29.66,10.0,East,4.6,-,N/A,,Clear,100,2013-04-30 05:54:00
1:54 AM,55.0,51.1,86,29.63,10.0,ESE,5.8,-,N/A,,Clear,110,2013-04-30 06:54:00
2:54 AM,55.0,52.0,89,29.62,10.0,ESE,5.8,-,N/A,,Clear,120,2013-04-30 07:54:00
3:54 AM,55.0,52.0,89,29.62,10.0,SE,5.8,-,N/A,,Clear,130,2013-04-30 08:54:00
4:54 AM,57.0,54.0,89,29.61,10.0,SSE,9.2,-,N/A,,Clear,160,2013-04-30 09:54:00
5:54 AM,55.0,53.1,93,29.60,10.0,South,8.1,-,N/A,,Clear,170,2013-04-30 10:54:00
6:54 AM,57.0,55.0,93,29.60,10.0,South,8.1,-,N/A,,Clear,170,2013-04-30 11:54:00
7:54 AM,63.0,55.9,78,29.59,10.0,South,13.8,20.7,N/A,,Clear,190,2013-04-30 12:54:00
8:54 AM,69.1,55.0,61,29.59,10.0,SSW,16.1,27.6,N/A,,Clear,200,2013-04-30 13:54:00
9:54 AM,73.0,55.9,55,29.57,10.0,SSW,20.7,27.6,N/A,,Clear,200,2013-04-30 14:54:00
10:54 AM,75.0,55.9,51,29.57,10.0,SSW,17.3,28.8,N/A,,Clear,200,2013-04-30 15:54:00
11:54 AM,78.1,55.0,45,29.58,10.0,SW,17.3,28.8,N/A,,Clear,220,2013-04-30 16:54:00
12:54 PM,80.1,55.0,42,29.59,10.0,SW,17.3,23.0,N/A,,Clear,220,2013-04-30 17:54:00
1:54 PM,81.0,55.0,41,29.61,10.0,WSW,16.1,29.9,N/A,,Scattered Clouds,240,2013-04-30 18:54:00
2:54 PM,80.1,55.0,42,29.64,10.0,WSW,13.8,21.9,N/A,,Mostly Cloudy,250,2013-04-30 19:54:00
3:54 PM,81.0,54.0,39,29.66,10.0,WSW,12.7,23.0,N/A,,Mostly Cloudy,240,2013-04-30 20:54:00
4:54 PM,81.0,55.0,41,29.68,10.0,WSW,12.7,-,N/A,,Partly Cloudy,250,2013-04-30 21:54:00
5:54 PM,80.1,55.0,42,29.70,10.0,West,11.5,19.6,N/A,,Scattered Clouds,270,2013-04-30 22:54:00
6:54 PM,73.0,51.1,46,29.74,10.0,NW,19.6,-,N/A,,Overcast,320,2013-04-30 23:54:00
7:54 PM,68.0,48.9,50,29.75,10.0,NNW,15.0,-,N/A,,Mostly Cloudy,330,2013-05-01 00:54:00
9:54 PM,55.9,46.9,72,29.85,10.0,NNW,17.3,-,0.02,,Overcast,340,2013-05-01 02:54:00
10:54 PM,55.0,45.0,69,29.88,10.0,NNW,8.1,-,0.00,,Overcast,340,2013-05-01 03:54:00